Tracking 19638 objects as of 20-May-2019
HD Live streaming from Space Station
objects crossing your sky now

IRIDIUM 28

Track IRIDIUM 28 now!
10-day predictions
IRIDIUM 28 is classified as:


NORAD ID: 24948
Int'l Code: 1997-051E
Perigee: 778.3 km
Apogee: 781.7 km
Inclination: 86.4 °
Period: 100.3 minutes
Semi major axis: 7151 km
RCS: 4.0828 m2 (large)
Launch date: September 14, 1997
Source: United States (US)
Launch site: TYURATAM MISSILE AND SPACE COMPLEX (TTMTR)
aabbcc
Your satellite tracking list
Your tracking list is empty




NASA's NSSDC Master Catalog

Two Line Element Set (TLE):
1 24948U 97051E   19140.50393359  .00000085  00000-0  22720-4 0  9991
2 24948  86.3964 351.9501 0002408  95.2725 264.8747 14.35659570135342
Source of the keplerian elements: AFSPC